Location: Columbia
(38.9520°N, 92.3340°W)
Time: 08:20:45
(UTC-05:00)

Tiangong 1 - Visible Passes

Search period start: 25 October 2014 00:00
Search period end: 03 November 2014 23:00
Orbit: 351 x 361 km, 42.8° (Epoch: 25 October)

Date Brightness Start Highest point End Pass type
(mag) Time Alt. Az. Time Alt. Az. Time Alt. Az.
25 Oct 2.3 20:03:02 10° W 20:05:15 37° NW 20:05:15 37° NW visible
26 Oct 1.0 18:53:56 10° WSW 18:56:54 71° NNW 18:59:30 13° ENE visible
26 Oct 4.1 20:30:26 10° WNW 20:31:07 15° WNW 20:31:07 15° WNW visible
27 Oct 1.7 19:21:10 10° W 19:24:01 41° N 19:25:12 27° NE visible
28 Oct 2.0 19:48:17 10° WNW 19:50:47 35° NNW 19:50:47 35° NNW visible
29 Oct 1.8 18:38:48 10° WNW 18:41:38 39° N 18:44:27 10° ENE visible
29 Oct 3.5 20:15:06 10° WNW 20:16:14 20° WNW 20:16:14 20° WNW visible
30 Oct 1.8 19:05:38 10° WNW 19:08:26 37° N 19:10:00 21° ENE visible
31 Oct 1.1 19:32:09 10° WNW 19:35:04 54° NNE 19:35:16 52° NNE visible
01 Nov 2.4 19:58:30 10° WNW 20:00:30 38° W 20:00:30 38° W visible
02 Nov 1.0 17:48:42 10° WNW 17:51:38 62° NNE 17:54:07 13° E visible
02 Nov 4.2 19:25:00 10° W 19:25:42 15° W 19:25:42 15° W visible
03 Nov 1.4 18:14:49 10° WNW 18:17:44 57° SSW 18:19:20 23° SE visible
